FW2442 Weather Reports


Display with metric or nautical units.
time (UTC)temp
F
wind
direction
speed
MPH
gust
MPH
rain 1hr
in
rain 24hr
in
rain mn
in
humidity
%
barometer
mb
20260510204521 54 189 0.0 1.0 0.00 0.12 0.12 90 1015.4
20260510203602 54 217 0.0 1.0 0.00 0.12 0.12 89 1015.4
20260510202522 54 0.0 0.0 0.00 0.12 0.12 89 1015.4
20260510201522 54 185 1.0 2.0 0.00 0.12 0.12 88 1015.4
20260510200522 55 0.0 0.0 0.00 0.12 0.12 87 1015.3
20260510195602 55 0.0 0.0 0.00 0.12 0.12 87 1015.2
20260510194522 56 0.0 0.0 0.00 0.12 0.12 86 1015.2
20260510193522 56 0.0 0.0 0.00 0.14 0.12 85 1015.1
20260510192522 56 53 1.0 1.0 0.00 0.18 0.12 85 1015.0
20260510191521 56 53 1.0 1.0 0.00 0.20 0.12 85 1015.0
20260510190523 57 0.0 0.0 0.00 0.22 0.12 85 1015.2
20260510185523 57 47 0.0 1.0 0.00 0.23 0.12 85 1015.2
20260510184543 57 46 1.0 1.0 0.00 0.24 0.12 85 1015.1
20260510183523 57 49 1.0 1.0 0.00 0.24 0.12 85 1015.1
20260510182522 57 70 1.0 1.0 0.00 0.24 0.12 85 1015.0
20260510181523 57 64 0.0 1.0 0.00 0.24 0.12 84 1015.1
20260510180522 58 0.0 0.0 0.00 0.24 0.12 84 1015.0
20260510175521 58 43 1.0 1.0 0.00 0.24 0.12 84 1014.9
20260510174523 58 48 1.0 1.0 0.00 0.24 0.12 82 1014.8
20260510173543 59 48 1.0 1.0 0.00 0.24 0.12 82 1014.7
20260510172522 60 40 1.0 1.0 0.00 0.24 0.12 80 1014.7
20260510171523 60 38 1.0 1.0 0.00 0.24 0.12 79 1014.8
20260510170522 61 24 1.0 1.0 0.00 0.24 0.12 78 1014.8
20260510165542 61 29 1.0 1.0 0.00 0.24 0.12 76 1014.8
20260510164522 62 11 1.0 1.0 0.00 0.24 0.12 75 1014.8
20260510163542 63 343 1.0 1.0 0.00 0.24 0.12 74 1014.9
20260510162523 63 358 1.0 1.0 0.00 0.24 0.12 74 1014.8
20260510161523 62 349 1.0 1.0 0.00 0.24 0.12 74 1014.9
20260510160522 63 353 1.0 2.0 0.00 0.24 0.12 73 1014.9
20260510155522 63 358 1.0 2.0 0.00 0.24 0.12 74 1014.9
20260510154522 62 1 1.0 2.0 0.00 0.24 0.12 75 1014.9
20260510153522 63 340 1.0 2.0 0.00 0.24 0.12 72 1014.9
20260510152522 63 336 2.0 2.0 0.00 0.24 0.12 73 1014.9
20260510151522 63 6 1.0 3.0 0.00 0.24 0.12 72 1014.9
20260510150522 64 357 3.0 6.0 0.00 0.24 0.12 71 1014.9
20260510145523 64 5 2.0 4.0 0.00 0.24 0.12 71 1014.9
20260510144523 64 9 2.0 5.0 0.00 0.24 0.12 73 1014.9
20260510143543 63 348 3.0 9.0 0.00 0.24 0.12 72 1015.0
20260510142523 63 353 2.0 6.0 0.00 0.24 0.12 74 1015.1
20260510141543 63 330 2.0 6.0 0.00 0.24 0.12 75 1015.1
20260510140522 64 330 4.0 8.0 0.00 0.24 0.12 75 1015.1
20260510135523 63 310 2.0 4.0 0.00 0.24 0.12 75 1015.1
20260510134522 63 316 4.0 10.0 0.00 0.24 0.12 77 1015.2
20260510133522 62 339 3.0 6.0 0.00 0.24 0.12 78 1015.3
20260510132526 64 315 6.0 10.0 0.00 0.24 0.12 77 1015.3
20260510130523 63 329 5.0 12.0 0.00 0.24 0.12 78 1015.4
20260510125603 62 339 6.0 12.0 0.00 0.24 0.12 78 1015.6
20260510124522 63 336 5.0 10.0 0.00 0.24 0.12 77 1015.6
20260510123528 62 1 4.0 8.0 0.00 0.24 0.12 80 1015.6
20260510122543 62 342 4.0 7.0 0.00 0.24 0.12 85 1015.9
20260510121542 60 344 3.0 8.0 0.00 0.24 0.12 87 1016.0
20260510120522 60 324 4.0 10.0 0.00 0.24 0.12 88 1016.1
20260510115522 59 322 5.0 11.0 0.00 0.24 0.12 90 1016.3
20260510114523 58 312 6.0 12.0 0.00 0.24 0.12 93 1016.5
20260510113522 57 304 5.0 9.0 0.00 0.24 0.12 95 1016.6
20260510112523 57 305 7.0 12.0 0.00 0.24 0.12 95 1016.6
20260510111523 57 306 8.0 13.0 0.00 0.24 0.12 96 1016.6
20260510110542 56 301 9.0 13.0 0.00 0.24 0.12 96 1016.7
20260510105523 56 296 9.0 14.0 0.00 0.24 0.12 97 1016.7
20260510104523 56 298 8.0 13.0 0.00 0.24 0.12 97 1016.8
20260510103522 56 303 7.0 14.0 0.00 0.24 0.12 97 1016.8
20260510102522 56 302 8.0 13.0 0.00 0.24 0.12 98 1016.9
20260510101543 56 296 9.0 13.0 0.00 0.24 0.12 98 1016.8
20260510100523 56 300 7.0 11.0 0.00 0.24 0.12 98 1016.8
20260510095522 56 296 9.0 16.0 0.00 0.24 0.12 98 1016.8
20260510094523 56 299 8.0 15.0 0.00 0.24 0.12 98 1016.9
20260510093523 56 293 6.0 11.0 0.00 0.24 0.12 99 1016.8
20260510092523 56 301 5.0 9.0 0.00 0.24 0.12 99 1016.8
20260510091603 56 313 7.0 12.0 0.00 0.24 0.12 99 1016.9
20260510090522 55 308 7.0 14.0 0.00 0.24 0.12 99 1016.9
20260510085523 55 305 8.0 14.0 0.01 0.24 0.12 99 1016.9
20260510084542 55 302 7.0 13.0 0.01 0.24 0.12 99 1016.9
20260510083523 55 307 7.0 11.0 0.02 0.24 0.12 99 1016.9
20260510082522 55 303 7.0 11.0 0.02 0.24 0.12 99 1016.8
20260510081522 56 321 3.0 8.0 0.02 0.24 0.12 99 1016.8
20260510080542 55 299 4.0 9.0 0.02 0.24 0.12 99 1016.9
20260510075522 55 293 4.0 9.0 0.02 0.23 0.11 99 1016.8
20260510074523 55 300 8.0 14.0 0.02 0.23 0.11 99 1016.8
20260510073522 55 305 6.0 14.0 0.02 0.22 0.10 99 1016.8
20260510072522 55 299 6.0 15.0 0.02 0.22 0.10 99 1016.8
20260510071523 55 298 7.0 16.0 0.03 0.22 0.10 99 1016.7
20260510070523 55 311 8.0 13.0 0.03 0.22 0.10 99 1016.8
20260510065522 55 310 9.0 15.0 0.03 0.21 0.09 99 1016.8
20260510064523 55 314 10.0 16.0 0.03 0.21 0.09 99 1016.8
20260510063542 55 307 11.0 16.0 0.02 0.20 0.08 99 1016.8
20260510062523 55 303 8.0 16.0 0.02 0.20 0.08 99 1016.8
20260510061523 55 309 10.0 16.0 0.01 0.19 0.07 99 1016.7
20260510060523 55 303 8.0 17.0 0.01 0.19 0.07 99 1016.7
20260510055523 55 310 9.0 17.0 0.00 0.18 0.06 99 1016.6
20260510054603 55 312 8.0 16.0 0.00 0.18 0.06 99 1016.6
20260510053603 54 312 9.0 17.0 0.00 0.18 0.06 99 1016.6
20260510052523 55 318 8.0 13.0 0.01 0.18 0.06 99 1016.6
20260510051522 55 302 7.0 14.0 0.01 0.18 0.06 99 1016.5
20260510050548 55 299 10.0 15.0 0.01 0.18 0.06 99 1016.5
20260510045521 55 300 7.0 15.0 0.01 0.18 0.06 99 1016.5
20260510044523 55 307 7.0 14.0 0.01 0.18 0.06 99 1016.4
20260510043521 55 313 3.0 8.0 0.01 0.18 0.06 99 1016.3
20260510042548 55 326 3.0 6.0 0.00 0.17 0.05 99 1016.3
20260510041523 55 328 3.0 7.0 0.01 0.17 0.05 99 1016.3
20260510040525 55 316 4.0 9.0 0.01 0.17 0.05 99 1016.2
20260510035523 55 327 3.0 9.0 0.01 0.17 0.05 100 1016.2
20260510034523 55 333 4.0 11.0 0.02 0.17 0.05 100 1016.2
20260510033523 55 330 3.0 5.0 0.02 0.17 0.05 99 1016.1
20260510032523 55 333 2.0 8.0 0.03 0.17 0.05 99 1016.0
20260510031523 55 337 2.0 3.0 0.02 0.16 0.04 99 1016.1
20260510030523 55 6 3.0 7.0 0.02 0.17 0.04 99 1016.1
20260510025524 55 335 3.0 10.0 0.03 0.17 0.04 99 1016.1
20260510024522 55 334 2.0 3.0 0.02 0.16 0.03 99 1016.0
20260510023543 55 352 3.0 6.0 0.02 0.16 0.03 99 1016.0
20260510022543 55 324 2.0 6.0 0.01 0.15 0.02 99 1016.0
20260510021523 55 337 3.0 6.0 0.01 0.15 0.02 99 1016.0
20260510020523 55 54 2.0 6.0 0.01 0.15 0.02 99 1016.0
20260510015530 56 342 2.0 6.0 0.00 0.14 0.01 99 1016.0
20260510014537 56 340 2.0 9.0 0.00 0.14 0.01 99 1016.1
20260510013523 56 342 3.0 5.0 0.00 0.14 0.01 99 1016.1
20260510012544 56 348 2.0 7.0 0.00 0.14 0.01 99 1016.1
20260510011523 56 341 2.0 7.0 0.00 0.14 0.01 99 1016.2
20260510010524 56 336 2.0 3.0 0.00 0.14 0.01 99 1016.2
20260510005523 56 330 2.0 3.0 0.00 0.14 0.01 99 1016.2
20260510004523 56 334 2.0 4.0 0.00 0.14 0.01 99 1016.2
20260510003520 56 351 2.0 2.0 0.00 0.14 0.01 99 1016.2
20260510002543 56 349 3.0 6.0 0.00 0.14 0.01 99 1016.3
20260510001524 56 345 2.0 6.0 0.00 0.14 0.01 99 1016.2
20260510000543 56 352 2.0 7.0 0.00 0.14 0.01 99 1016.3
20260509235523 56 341 3.0 6.0 0.00 0.14 0.01 99 1016.4
20260509234523 56 355 4.0 8.0 0.00 0.14 0.01 99 1016.4
20260509233523 56 341 3.0 7.0 0.00 0.14 0.01 99 1016.5
20260509232524 56 356 2.0 5.0 0.00 0.14 0.01 99 1016.6
20260509231540 56 341 2.0 4.0 0.00 0.14 0.01 99 1016.7
20260509230524 56 344 2.0 3.0 0.00 0.14 0.01 99 1016.8
20260509225523 56 333 2.0 5.0 0.00 0.14 0.01 99 1016.8
20260509224523 56 339 3.0 8.0 0.00 0.14 0.01 99 1016.9
20260509223523 56 2 2.0 6.0 0.00 0.14 0.01 99 1016.9
20260509222524 56 336 3.0 7.0 0.01 0.14 0.01 99 1017.0
20260509221523 56 354 2.0 8.0 0.01 0.14 0.01 99 1017.1
20260509220603 56 11 2.0 5.0 0.01 0.14 0.01 98 1017.1
20260509215523 56 350 3.0 6.0 0.01 0.14 0.01 98 1017.2
20260509214522 57 341 2.0 7.0 0.01 0.14 0.01 98 1017.2
20260509213543 57 342 2.0 4.0 0.01 0.14 0.01 98 1017.3
20260509212523 57 339 2.0 5.0 0.00 0.13 0.00 98 1017.2
20260509211558 57 339 2.0 4.0 0.00 0.13 0.00 98 1017.2
20260509210523 57 328 2.0 6.0 0.00 0.13 0.00 98 1017.3
20260509205523 57 336 4.0 7.0 0.00 0.13 0.13 97 1017.2